{"data":{"norad_id":63645,"intl_designator":"2025-083M","name":"STARLINK-33835","alt_names":[],"object_type":"PAYLOAD","status":"ACTIVE","operator":null,"country":"US","launch_date":"2025-04-25","launch_site_code":"AFETR","launch_vehicle":null,"mission":null,"orbit_class":"UNKNOWN","rcs_meters":null,"size_class":null,"mass_kg":null,"dimensions":null,"purposes":["comms"],"wikipedia_slug":null,"has_3d_model":false,"image_url":null,"decayed_at":null,"tle_current":{"epoch":"2026-05-25T02:39:58.850784Z","epoch_age_seconds":65763,"freshness":"FRESH","line1":"1 63645U 25083M   26145.11109781  .00040213  00000+0  14624-2 0  9996","line2":"2 63645  42.9998 293.6926 0001097 283.7484  76.3245 15.27590907 61781","mean_motion":15.27590907,"eccentricity":0.0001097,"inclination_deg":42.9998,"raan_deg":293.6926,"arg_perigee_deg":283.7484,"mean_anomaly_deg":76.3245,"bstar":0.0014624,"rev_number":6178,"period_min":94.266075649009,"perigee_km":482.26376822019,"apogee_km":483.76910528422,"semimajor_km":6861.1534367522,"source":"CELESTRAK","updated_at":"2026-05-25T13:38:20.054336Z"}}}